Temp
4 4 4 3 3 3 2 2 3 3 3 2 3 3 2 3 4 4 4 4 4 3 3 3 7 6 7 7 8 8 7 7 7 7 7 7 7 7 5 6 7 6 5 6 6 6 7
4 3 3 3 2 3 2 2 3 3 3 3 3 2 2 3 3 4 3 3 3 3 3 3 5 5 7 7 7 7 7 7 7 7 7 7 7 7 6 5 5 5 5 5 6 7 6
4 3 2 2 2 2 2 2 2 3 3 3 3 3 3 3 3 4 3 3 3 5 4 4 5 6 5 6 6 6 7 7 6 7 7 7 7 7 6 5 6 5 4 4 5 6 5
2 2 2 2 2 3 3 3 2 2 3 2 3 3 3 3 3 3 3 3 3 4 6 5 5 5 5 5 6 6 6 6 6 6 7 6 6 6 6 5 4 3 3 2 5 5 6
2 2 2 3 2 3 3 3 3 3 3 3 3 3 3 2 2 2 3 3 4 6 7 5 5 5 4 5 5 6 6 6 6 6 6 6 6 5 5 2 -1 1 -1 2 3 6 5
2 2 3 3 3 3 3 2 3 3 2 2 3 2 2 2 2 3 3 3 3 5 4 4 4 6 4 5 4 5 6 6 6 6 6 6 5 2 1 0 -0 1 -1 2 3 5 5
3 3 3 3 3 3 3 3 3 3 3 3 3 2 2 2 2 3 3 3 2 4 3 3 3 4 4 4 4 5 5 6 5 5 3 4 2 0 2 2 1 0 1 2 3 5 5
3 3 3 3 4 3 3 3 3 2 3 2 2 2 3 2 3 2 2 1 -0 2 2 2 3 4 4 4 5 5 5 5 5 3 3 1 2 3 3 3 3 2 2 4 4 5 6
3 3 3 3 3 3 2 3 3 3 2 2 2 3 3 3 2 2 1 1 1 2 1 1 2 3 3 4 4 5 5 5 4 3 3 2 4 4 4 3 3 4 3 4 5 6 6
3 3 3 3 2 3 3 3 3 3 2 2 3 2 3 2 2 1 1 1 1 3 3 2 2 3 4 5 5 5 5 5 4 3 3 3 4 4 4 4 5 4 6 6 6 6 6
3 3 3 3 2 3 4 3 3 2 2 3 3 3 3 2 2 2 1 1 2 3 4 2 2 4 5 5 5 5 5 5 4 5 5 3 4 4 5 5 6 6 7 7 6 6 6
3 3 3 3 3 3 4 3 2 2 2 2 3 3 3 2 3 2 2 2 2 3 3 3 4 5 5 5 4 4 5 5 5 4 4 4 5 5 6 6 7 7 6 6 6 6 6
2 3 3 3 2 3 3 3 3 2 3 3 3 3 3 3 1 2 2 2 2 2 2 4 4 5 5 4 4 4 4 4 4 5 1 6 5 6 6 5 7 6 6 6 4 4 5
2 3 3 3 2 3 4 3 3 2 2 2 3 3 3 3 2 2 3 1 2 3 3 4 5 5 4 5 4 4 4 3 3 5 4 5 4 6 6 6 7 7 6 6 5 7 7
2 3 3 3 3 3 4 4 4 2 2 3 3 5 4 4 4 4 4 2 0 2 5 4 5 4 5 5 4 4 5 6 6 5 6 6 6 7 6 7 7 7 7 7 7 7 7
2 2 3 3 3 4 4 4 5 4 4 4 5 5 5 5 5 5 2 4 3 3 5 6 5 5 5 5 5 4 5 6 7 7 6 6 6 7 7 6 7 7 7 8 7 8 9
3 2 3 2 3 4 5 5 5 5 5 5 5 5 6 7 6 5 3 3 4 6 6 6 6 5 5 5 5 5 5 6 7 7 6 6 6 7 8 7 9 6 7 7 7 7 8
5 3 3 2 4 5 5 6 6 6 6 7 6 1 7 8 3 3 3 4 5 6 6 6 7 7 6 5 7 6 6 6 7 6 6 6 5 4 8 9 8 8 8 6 5 7 5
5 3 3 3 4 5 6 6 6 7 6 8 6 6 7 9 1 1 3 4 4 6 6 7 8 8 7 6 7 6 6 8 7 6 7 6 5 3 7 8 7 7 7 6 5 4 6
5 4 3 3 4 5 6 6 7 8 7 8 7 1 7 7 2 2 2 4 6 7 6 7 6 8 8 7 6 7 8 8 8 7 8 7 5 6 4 7 6 6 6 5 5 3 5
4 5 3 3 3 5 6 7 7 8 8 8 6 1 3 0 3 2 3 5 5 5 6 7 7 4 6 8 7 7 7 7 8 8 7 6 5 4 5 5 6 6 6 5 5 6 6
4 4 5 3 3 4 6 7 8 8 9 8 7 5 4 3 3 3 3 4 5 5 5 6 6 6 5 6 5 6 5 7 7 7 7 4 5 5 3 7 6 6 6 6 6 6 6
3 4 4 4 3 4 5 7 7 7 9 8 7 6 6 3 3 3 3 4 4 5 6 6 5 6 6 6 6 6 6 6 5 6 5 5 3 2 4 5 5 6 7 7 7 6 7
3 3 3 4 4 4 5 6 7 7 7 8 8 8 7 3 2 3 4 5 5 5 6 6 6 7 7 7 7 6 5 5 5 5 5 5 3 0 2 4 5 8 6 6 6 5 5
3 3 3 3 4 4 4 6 6 7 7 8 8 8 8 3 2 4 4 4 5 5 5 6 7 7 7 7 5 6 5 7 7 6 6 3 3 3 2 2 6 7 6 6 6 7 4
4 3 3 3 3 4 4 4 6 6 7 7 8 8 8 6 4 6 4 4 3 2 3 7 7 7 7 3 4 7 6 6 7 5 4 3 2 4 3 6 8 8 6 6 7 6 5
5 4 4 3 3 3 4 4 4 5 6 6 7 8 8 8 7 6 5 5 5 3 2 4 7 7 7 3 5 4 3 4 5 5 7 4 3 4 3 4 5 5 6 6 8 7 6
4 5 4 3 3 3 4 4 4 4 5 6 6 7 7 7 7 8 7 7 5 4 3 6 4 5 3 4 4 3 2 2 3 3 6 5 3 3 2 4 5 5 5 6 6 6 7
3 4 5 4 3 4 4 4 4 4 5 5 6 6 7 6 7 7 7 7 7 7 7 6 5 5 5 2 1 0 3 -0 1 4 2 3 4 4 4 4 6 7 8 9 8 8 7
Height
1509 1503 1496 1490 1485 1481 1478 1474 1470 1468 1465 1463 1461 1461 1461 1461 1461 1461 1461 1462 1463 1464 1464 1465 1470 1473 1477 1481 1484 1484 1485 1488 1490 1493 1495 1496 1498 1501 1506 1508 1509 1509 1511 1510 1510 1510 1506
1506 1501 1495 1489 1483 1479 1474 1471 1467 1463 1461 1459 1458 1457 1456 1457 1457 1457 1456 1458 1459 1460 1460 1462 1466 1470 1473 1481 1482 1485 1485 1488 1491 1493 1495 1497 1500 1503 1505 1508 1509 1510 1509 1508 1507 1505 1503
1504 1499 1493 1488 1482 1477 1472 1468 1464 1459 1456 1455 1454 1453 1452 1453 1454 1453 1454 1454 1455 1456 1456 1459 1463 1466 1473 1480 1483 1487 1487 1490 1493 1496 1497 1499 1501 1505 1507 1508 1509 1508 1509 1507 1502 1503 1501
1502 1496 1491 1485 1479 1473 1468 1464 1459 1455 1451 1450 1449 1448 1449 1450 1450 1450 1450 1450 1448 1450 1450 1456 1462 1464 1472 1478 1485 1487 1488 1492 1495 1497 1499 1501 1503 1505 1508 1510 1509 1510 1513 1515 1501 1502 1499
1499 1494 1489 1482 1475 1469 1463 1458 1452 1448 1446 1444 1445 1445 1445 1447 1447 1447 1447 1446 1439 1439 1447 1456 1462 1460 1475 1482 1485 1489 1491 1494 1497 1499 1501 1503 1504 1508 1510 1515 1523 1518 1530 1517 1507 1500 1500
1499 1493 1486 1479 1472 1465 1458 1451 1445 1441 1436 1436 1441 1443 1443 1445 1445 1445 1445 1444 1440 1440 1449 1455 1461 1461 1476 1479 1484 1490 1493 1496 1498 1501 1504 1505 1506 1511 1515 1520 1535 1523 1529 1516 1513 1502 1501
1498 1492 1484 1476 1469 1459 1449 1441 1434 1432 1430 1436 1440 1442 1443 1444 1443 1444 1444 1441 1445 1451 1454 1453 1459 1460 1472 1480 1489 1493 1495 1498 1500 1502 1506 1507 1512 1519 1514 1514 1518 1522 1523 1520 1508 1502 1502
1498 1491 1482 1474 1465 1453 1441 1430 1427 1430 1432 1435 1440 1442 1444 1443 1444 1443 1442 1445 1446 1453 1454 1461 1462 1467 1474 1483 1488 1494 1497 1502 1503 1506 1507 1513 1515 1510 1511 1512 1514 1517 1519 1512 1504 1497 1496
1498 1491 1482 1475 1464 1452 1437 1429 1429 1431 1433 1438 1441 1443 1443 1444 1445 1444 1444 1446 1447 1452 1460 1470 1467 1473 1482 1487 1493 1497 1501 1503 1503 1505 1509 1513 1510 1508 1509 1512 1513 1513 1515 1510 1505 1497 1490
1499 1492 1484 1477 1467 1456 1443 1438 1435 1436 1439 1443 1444 1445 1446 1446 1450 1448 1449 1448 1450 1452 1463 1479 1479 1486 1489 1491 1497 1500 1502 1503 1504 1507 1509 1510 1507 1507 1508 1509 1509 1509 1501 1500 1499 1496 1490
1500 1494 1487 1480 1472 1465 1456 1451 1447 1449 1449 1449 1449 1449 1449 1449 1450 1450 1452 1451 1451 1453 1469 1489 1486 1487 1488 1491 1497 1502 1503 1503 1504 1504 1508 1511 1506 1507 1508 1504 1503 1499 1496 1496 1495 1493 1488
1503 1497 1491 1484 1478 1472 1466 1462 1459 1457 1456 1455 1454 1454 1452 1452 1451 1452 1452 1453 1456 1461 1478 1488 1489 1489 1491 1494 1498 1502 1503 1503 1503 1504 1505 1505 1503 1504 1501 1499 1498 1495 1495 1492 1489 1487 1487
1504 1500 1495 1489 1483 1478 1474 1469 1467 1465 1463 1461 1458 1458 1456 1454 1454 1454 1454 1455 1463 1476 1490 1491 1490 1490 1493 1497 1500 1502 1504 1505 1505 1507 1519 1501 1500 1497 1497 1498 1492 1495 1495 1493 1505 1499 1494
1506 1502 1497 1493 1488 1483 1480 1475 1472 1471 1469 1468 1465 1463 1461 1458 1458 1456 1454 1456 1472 1485 1485 1490 1490 1490 1495 1497 1503 1503 1505 1507 1506 1505 1505 1505 1511 1494 1492 1494 1489 1490 1492 1494 1502 1480 1476
1508 1505 1499 1496 1492 1488 1485 1483 1479 1476 1474 1472 1470 1467 1464 1463 1459 1457 1458 1468 1493 1489 1487 1490 1492 1497 1499 1500 1503 1503 1503 1502 1501 1502 1503 1500 1497 1488 1490 1489 1491 1487 1488 1489 1484 1475 1475
1509 1506 1501 1497 1494 1491 1488 1487 1484 1481 1479 1474 1470 1468 1465 1464 1462 1458 1458 1476 1487 1489 1490 1492 1495 1496 1501 1501 1501 1505 1505 1500 1498 1499 1501 1501 1498 1488 1486 1488 1489 1490 1490 1483 1483 1475 1467
1510 1507 1503 1500 1496 1493 1491 1489 1487 1484 1480 1475 1471 1469 1468 1466 1465 1464 1476 1488 1490 1490 1491 1492 1492 1497 1500 1500 1502 1502 1502 1499 1497 1499 1500 1502 1500 1492 1487 1486 1482 1489 1487 1487 1485 1480 1472
1511 1507 1505 1499 1497 1496 1493 1491 1489 1486 1482 1478 1475 1478 1474 1470 1471 1480 1488 1491 1491 1491 1491 1492 1491 1492 1497 1500 1497 1499 1500 1499 1496 1497 1500 1499 1501 1502 1483 1478 1478 1479 1481 1485 1491 1482 1487
1513 1509 1507 1502 1500 1500 1498 1495 1493 1491 1486 1482 1482 1484 1483 1479 1492 1495 1493 1493 1493 1492 1493 1492 1492 1492 1495 1498 1498 1500 1498 1493 1495 1497 1496 1497 1500 1509 1488 1484 1480 1482 1481 1483 1485 1490 1484
1515 1511 1509 1505 1501 1501 1502 1500 1497 1494 1491 1488 1488 1492 1490 1491 1496 1498 1499 1497 1495 1495 1494 1494 1494 1492 1494 1498 1498 1498 1496 1493 1493 1494 1494 1495 1500 1499 1507 1492 1490 1487 1485 1484 1483 1497 1483
1515 1513 1510 1508 1505 1502 1502 1502 1500 1498 1494 1493 1495 1502 1503 1505 1500 1501 1500 1500 1498 1500 1495 1494 1495 1499 1499 1498 1500 1501 1499 1496 1493 1493 1493 1495 1499 1500 1493 1491 1488 1485 1483 1483 1482 1479 1479
1515 1513 1512 1510 1506 1504 1502 1503 1502 1501 1499 1498 1501 1503 1503 1503 1502 1501 1503 1506 1504 1503 1501 1501 1501 1501 1499 1502 1504 1502 1502 1499 1496 1494 1493 1495 1498 1493 1498 1483 1486 1482 1478 1477 1476 1476 1475
1516 1514 1512 1512 1509 1506 1504 1502 1502 1502 1502 1501 1503 1503 1504 1507 1505 1506 1512 1510 1508 1506 1505 1505 1504 1504 1502 1502 1501 1499 1498 1498 1498 1498 1496 1496 1499 1505 1498 1488 1485 1483 1472 1472 1472 1473 1471
1517 1515 1513 1512 1511 1508 1505 1503 1502 1503 1506 1505 1504 1504 1504 1513 1510 1512 1511 1509 1508 1506 1505 1503 1502 1501 1501 1498 1496 1496 1496 1495 1495 1495 1495 1496 1500 1509 1508 1494 1499 1470 1469 1470 1471 1469 1467
1517 1515 1513 1512 1512 1511 1508 1506 1504 1502 1504 1507 1506 1505 1506 1512 1511 1511 1511 1510 1508 1507 1506 1504 1502 1501 1498 1495 1496 1497 1498 1493 1492 1493 1493 1493 1499 1504 1509 1509 1481 1466 1469 1470 1469 1464 1461
1516 1515 1513 1512 1512 1512 1510 1507 1506 1504 1502 1503 1505 1505 1505 1506 1508 1507 1508 1508 1509 1507 1505 1503 1502 1500 1499 1499 1502 1497 1502 1498 1494 1495 1492 1493 1494 1498 1503 1493 1477 1465 1465 1465 1466 1471 1458
1514 1514 1512 1511 1511 1512 1511 1508 1506 1504 1503 1502 1504 1505 1504 1503 1503 1504 1504 1505 1504 1505 1506 1502 1499 1499 1499 1504 1506 1509 1513 1504 1502 1498 1490 1496 1498 1497 1499 1499 1479 1465 1464 1465 1467 1466 1454
1512 1511 1511 1510 1509 1510 1511 1510 1508 1505 1503 1503 1502 1504 1505 1503 1500 1499 1499 1500 1501 1502 1502 1499 1501 1500 1500 1504 1507 1508 1510 1506 1505 1497 1487 1491 1498 1497 1500 1496 1487 1460 1465 1467 1457 1453 1453
1511 1509 1509 1508 1508 1508 1510 1510 1509 1507 1504 1503 1503 1503 1503 1503 1501 1498 1496 1497 1497 1497 1497 1496 1498 1497 1497 1502 1506 1507 1505 1508 1504 1496 1488 1492 1480 1481 1481 1470 1454 1454 1452 1452 1453 1453 1454
Wind_Speed
27 28 32 28 20 20 21 21 18 17 17 17 15 15 18 17 14 17 16 13 11 16 15 10 19 16 23 11 3 6 15 15 10 10 9 7 7 4 4 3 1 2 3 7 11 15 18
27 29 29 27 23 20 19 18 19 17 17 16 16 14 14 13 11 15 12 14 14 17 14 12 24 18 18 6 8 14 17 14 8 11 10 8 5 6 6 3 2 3 5 13 9 20 18
31 29 30 26 22 19 19 19 20 18 17 16 17 16 13 12 12 12 17 15 18 17 17 14 11 31 17 10 15 15 13 12 11 9 11 9 9 4 3 3 5 5 5 6 5 5 5
32 31 26 24 24 23 23 23 23 19 17 16 15 14 14 13 11 11 15 17 20 22 21 19 13 22 7 15 17 15 15 15 11 8 7 8 5 7 3 2 5 4 3 4 4 4 4
31 26 27 27 27 28 27 26 25 22 22 15 15 14 11 10 9 10 13 15 13 13 19 22 21 16 10 18 20 14 13 16 13 10 8 5 4 4 3 3 4 5 2 3 7 3 2
27 28 30 33 32 33 32 28 26 24 27 15 9 7 6 5 6 9 11 11 12 18 20 23 19 14 15 12 19 14 11 14 10 12 9 4 5 3 3 3 2 1 3 4 5 4 5
28 32 34 34 36 37 37 34 28 19 9 7 1 3 4 4 6 7 11 3 4 13 13 6 8 13 25 24 16 13 12 11 13 6 3 3 4 2 5 4 4 4 1 5 10 14 11
29 33 36 37 40 40 38 31 16 9 7 5 3 4 6 2 5 7 9 3 11 9 14 20 23 28 31 22 14 15 14 4 3 3 3 5 1 3 3 3 2 1 8 11 12 8 4
28 33 36 39 41 39 36 21 12 10 9 10 9 10 6 4 6 11 12 13 17 10 8 14 25 21 18 18 7 11 11 5 4 3 3 3 1 5 2 1 1 4 8 8 9 10 10
28 32 36 38 37 39 37 25 21 16 18 17 14 11 9 8 7 12 10 3 9 6 5 7 7 6 13 14 6 10 7 2 2 4 4 3 3 2 1 2 4 8 7 12 14 8 3
28 31 34 37 33 36 37 30 28 26 19 18 16 14 11 8 8 11 7 12 5 1 6 3 3 3 5 5 16 3 4 2 3 3 3 4 1 1 3 5 9 6 2 8 12 13 6
27 29 31 34 30 29 29 28 24 22 20 16 14 11 10 13 11 9 3 2 4 4 6 4 1 4 4 6 4 5 2 3 3 2 1 5 3 5 4 6 9 6 9 12 12 4 3
25 26 28 28 27 25 22 21 20 22 20 17 13 10 8 7 9 6 2 6 4 6 3 4 4 4 4 3 4 3 2 1 2 1 3 2 4 2 4 4 4 6 2 3 4 1 4
23 24 24 24 24 27 23 19 21 21 21 19 14 11 12 13 8 3 7 4 10 2 6 2 4 4 5 2 3 2 3 0 3 1 1 2 6 6 6 5 2 4 2 2 4 2 3
22 22 22 20 19 20 20 17 17 17 15 13 11 12 14 12 10 5 3 8 3 1 3 4 3 5 3 2 5 1 2 1 4 7 1 2 4 2 5 2 1 2 3 2 4 4 2
23 21 20 18 14 16 16 13 13 15 18 19 10 7 22 14 11 8 6 9 4 2 3 2 3 1 2 0 3 1 2 3 0 4 3 2 4 3 1 3 6 3 3 2 2 3 3
23 19 19 16 13 15 15 12 13 20 23 21 10 4 22 12 18 18 7 5 3 4 2 1 2 4 3 2 2 2 0 3 2 2 5 1 2 4 1 5 3 4 2 3 2 2 2
22 20 19 14 13 17 16 15 17 21 24 17 13 4 21 17 9 5 3 3 2 3 1 1 1 3 3 3 2 1 2 4 6 5 3 4 2 4 6 1 2 0 1 2 2 3 1
20 19 15 13 13 17 17 18 19 21 20 13 6 9 24 14 4 3 3 3 3 4 3 1 1 2 2 3 2 2 3 3 7 5 3 3 1 4 6 4 4 3 3 3 2 2 1
18 18 12 12 11 12 14 17 19 19 20 15 6 4 10 17 9 3 4 4 3 4 2 4 3 3 2 3 1 1 1 1 5 5 3 2 1 4 4 5 1 5 5 4 2 2 2
17 17 10 10 12 13 13 17 16 17 19 8 7 2 3 3 6 4 1 4 4 6 8 15 5 6 2 3 2 2 3 4 2 3 2 2 3 2 6 7 3 4 4 5 2 2 3
17 13 10 6 8 11 14 14 15 12 14 20 5 3 3 4 5 5 8 7 7 5 6 6 5 5 6 3 1 2 1 1 2 4 2 0 2 1 4 3 3 5 6 3 1 1 2
18 11 11 4 5 7 10 13 15 13 8 7 8 7 3 7 5 4 3 4 6 4 2 2 2 1 3 1 8 11 9 8 6 3 2 0 1 2 5 4 6 6 5 3 2 4 4
17 13 9 6 4 4 6 8 11 11 10 8 9 7 5 2 3 1 3 1 3 3 1 3 3 1 3 12 7 5 7 9 7 6 3 1 2 2 4 4 3 4 1 2 4 6 5
14 14 8 7 2 4 4 4 5 8 4 5 6 5 3 2 1 2 3 2 3 3 2 2 4 7 11 5 3 4 4 3 1 2 3 3 3 1 1 2 7 1 3 4 4 5 7
11 14 9 7 3 3 4 5 2 3 5 3 2 2 2 5 4 3 1 2 0 2 5 2 4 8 9 4 3 1 3 2 4 7 3 3 3 3 1 0 4 3 2 3 2 5 4
10 12 10 7 5 5 6 6 6 5 6 7 4 2 2 3 5 6 4 3 2 2 2 4 5 3 7 3 3 1 3 1 3 3 2 2 2 3 3 3 8 4 4 4 2 5 6
11 10 11 7 6 6 5 6 7 4 6 7 6 5 4 4 7 8 9 8 6 5 3 1 2 1 2 3 2 2 3 3 2 4 3 3 3 4 2 2 7 9 4 6 4 3 8
14 11 10 8 7 6 7 6 6 6 4 5 5 6 6 7 6 9 12 13 14 10 5 5 2 3 5 3 1 2 3 1 3 4 1 3 6 4 8 6 4 17 8 10 3 4 8
Wind_Direction
344 343 345 333 324 318 318 310 314 304 301 302 297 292 293 286 288 279 259 269 276 274 271 264 215 203 202 183 212 150 149 156 169 166 156 139 129 110 109 103 63 79 344 327 310 309 294
339 338 336 333 325 325 320 314 312 314 308 304 300 297 293 284 288 285 278 267 270 276 272 240 216 225 199 164 146 151 154 163 157 152 147 150 130 116 101 85 73 316 293 293 298 287 283
338 334 335 331 327 324 317 312 314 315 313 304 303 297 294 278 276 276 284 284 282 263 263 232 218 184 164 140 165 168 153 143 145 160 141 121 130 124 105 89 3 328 336 326 267 299 282
338 337 340 332 327 325 319 315 307 305 302 303 303 305 290 278 281 289 289 298 291 264 244 212 200 161 101 140 152 150 146 136 142 136 149 107 111 106 56 66 20 10 50 1 288 333 298
347 348 340 332 324 321 316 311 309 304 292 286 294 310 282 297 285 297 309 314 334 235 210 184 195 164 120 149 148 145 157 135 130 118 110 117 114 83 75 66 12 11 284 319 313 331 285
353 351 341 335 333 328 321 310 307 307 293 255 288 318 308 322 312 312 325 316 48 135 145 182 153 104 146 130 129 139 136 141 122 129 110 82 70 75 47 72 223 295 339 299 252 291 337
355 351 345 342 340 331 322 313 301 325 317 192 247 356 352 1 315 347 351 319 40 100 124 71 135 91 138 141 149 147 148 141 131 98 85 36 66 192 220 190 132 136 247 288 276 279 293
352 355 352 352 347 342 338 332 319 344 87 157 142 79 67 55 2 28 21 12 321 106 60 69 100 111 124 140 123 138 150 101 110 101 95 34 257 227 178 157 203 267 309 295 287 277 275
358 1 359 360 358 359 4 18 44 68 84 121 89 88 99 80 66 35 45 360 106 125 93 54 72 92 120 114 105 146 163 129 110 100 162 150 178 76 134 116 23 263 258 269 267 294 265
3 6 7 6 9 22 29 45 64 74 104 86 88 96 94 94 71 62 68 78 83 121 78 30 40 59 151 136 75 150 158 120 86 169 157 233 280 246 274 258 202 280 229 254 273 288 295
11 9 13 11 21 38 47 56 67 83 79 78 81 80 79 85 90 80 62 134 20 59 77 48 14 88 119 92 135 101 170 64 116 100 98 269 315 68 296 239 194 253 271 268 280 285 286
17 13 17 15 31 45 51 57 64 72 74 77 83 87 89 88 95 97 71 58 341 42 69 85 328 100 82 55 66 114 116 56 71 58 252 241 206 192 228 256 226 258 286 269 257 253 256
22 15 20 17 35 33 46 52 55 65 62 63 54 59 89 96 69 93 58 329 64 58 288 63 99 87 90 81 75 81 86 59 86 104 330 271 213 206 191 283 211 223 283 320 347 288 235
25 14 23 21 26 41 41 67 75 65 57 48 42 60 63 68 74 47 328 55 66 34 63 173 91 59 78 82 38 96 98 325 265 187 272 6 336 193 176 219 290 194 206 219 262 271 285
19 16 22 21 24 39 44 54 62 54 43 40 36 44 34 17 357 3 95 60 95 41 83 93 89 62 41 63 127 110 217 221 195 200 106 311 280 124 195 162 216 78 219 198 265 228 259
12 21 21 19 23 37 37 32 42 31 8 358 2 5 15 22 47 65 62 84 70 38 97 79 104 122 116 61 70 73 209 212 166 183 158 336 289 215 139 141 236 214 299 239 242 292 284
11 22 20 14 29 32 36 31 20 13 7 2 18 21 12 29 63 62 69 72 38 62 96 36 103 99 110 140 134 227 331 269 211 137 157 339 282 293 181 213 170 187 262 255 280 247 310
13 16 16 14 53 41 33 30 19 18 10 38 31 38 20 44 56 29 58 9 9 23 316 45 97 100 128 168 147 46 226 228 183 159 205 209 193 272 233 37 359 131 173 227 150 292 248
11 18 28 37 58 48 40 42 27 19 19 35 41 30 37 45 67 17 351 28 5 9 359 11 81 102 148 156 66 210 230 284 186 166 230 178 248 336 353 12 12 39 309 237 196 49 262
12 11 21 37 64 56 38 21 22 24 21 35 27 33 29 48 52 53 12 9 50 34 74 62 35 69 97 75 168 328 284 278 202 220 234 151 161 179 197 233 246 307 318 328 163 121 196
13 8 18 20 55 71 50 26 20 26 23 39 47 54 32 352 357 20 22 2 24 12 4 28 46 35 334 51 38 9 324 325 230 301 129 140 252 185 247 244 246 249 264 330 98 234 161
7 13 2 357 44 68 71 46 27 17 45 55 62 59 48 15 343 15 12 357 22 356 26 358 57 357 34 66 347 311 337 28 301 324 205 209 263 207 281 231 277 273 274 294 246 162 83
359 2 10 337 14 67 75 70 47 30 24 69 52 44 40 5 11 55 342 340 346 322 56 74 254 257 30 267 279 276 259 265 250 304 288 282 115 48 272 350 326 317 220 204 247 198 176
351 353 3 351 356 32 87 87 83 67 44 47 59 53 47 351 58 133 331 315 347 326 249 332 19 112 315 320 295 262 253 253 255 264 226 163 92 80 266 356 5 251 169 185 228 253 223
343 347 342 349 309 352 23 76 104 107 90 356 18 52 78 105 176 305 341 340 325 308 321 301 357 342 332 344 29 0 345 335 203 181 218 181 136 36 87 249 282 311 215 178 174 286 198
333 340 328 329 281 298 335 356 321 176 158 161 301 37 77 128 237 195 204 357 347 326 349 327 334 348 358 51 48 61 249 229 304 328 127 91 73 126 109 314 253 240 203 178 134 297 188
321 332 330 311 297 259 303 321 338 273 211 182 195 204 215 195 209 194 194 192 185 170 205 278 325 359 12 43 44 348 290 261 304 286 273 312 358 193 193 245 285 233 182 150 127 236 192
303 319 328 297 303 251 272 307 321 310 234 199 188 206 250 264 228 232 219 199 194 207 172 234 37 317 56 75 144 217 200 248 305 240 216 210 159 215 124 234 289 170 120 174 216 200 200
294 304 318 299 277 262 253 267 299 324 296 225 226 239 257 249 283 235 238 236 234 233 228 206 230 194 193 102 202 122 245 233 191 275 197 255 194 193 186 217 227 195 218 217 235 235 224